TimeEST,TemperatureF,Dew PointF,Humidity,Sea Level PressureIn,VisibilityMPH,Wind Direction,Wind SpeedMPH,Gust SpeedMPH,PrecipitationIn,Events,Conditions,WindDirDegrees,DateUTC
12:12 AM,19.8,13.5,77,29.77,10.0,WSW,9.2,-,N/A,,Overcast,240,2014-01-19 05:12:00
12:32 AM,19.2,13.3,78,29.76,10.0,SW,9.2,-,N/A,,Overcast,230,2014-01-19 05:32:00
12:51 AM,18.1,12.9,80,29.75,10.0,SW,8.1,-,N/A,,Mostly Cloudy,230,2014-01-19 05:51:00
1:12 AM,17.4,12.6,81,29.73,10.0,SW,8.1,-,N/A,,Scattered Clouds,230,2014-01-19 06:12:00
1:32 AM,16.0,11.8,84,29.73,10.0,WSW,5.8,-,N/A,,Clear,240,2014-01-19 06:32:00
1:51 AM,15.8,12.0,85,29.72,10.0,SSW,4.6,-,N/A,,Clear,210,2014-01-19 06:51:00
2:12 AM,15.1,11.5,86,29.71,10.0,SW,5.8,-,N/A,,Clear,220,2014-01-19 07:12:00
2:32 AM,14.5,11.3,87,29.72,10.0,SW,3.5,-,N/A,,Clear,230,2014-01-19 07:32:00
2:51 AM,13.6,10.8,88,29.71,10.0,SW,4.6,-,N/A,,Clear,220,2014-01-19 07:51:00
3:12 AM,13.8,11.1,89,29.69,10.0,SSW,5.8,-,N/A,,Clear,200,2014-01-19 08:12:00
3:32 AM,13.8,11.1,89,29.69,10.0,SW,4.6,-,N/A,,Scattered Clouds,220,2014-01-19 08:32:00
3:51 AM,14.7,11.8,88,29.68,10.0,SSW,5.8,-,N/A,,Mostly Cloudy,210,2014-01-19 08:51:00
4:12 AM,14.9,12.0,88,29.67,10.0,SW,5.8,-,N/A,,Overcast,220,2014-01-19 09:12:00
4:32 AM,15.1,12.2,88,29.67,10.0,SW,6.9,-,N/A,Snow,Light Snow,220,2014-01-19 09:32:00
4:51 AM,14.7,11.7,88,29.65,10.0,SW,6.9,-,N/A,,Mostly Cloudy,230,2014-01-19 09:51:00
5:12 AM,15.6,12.4,87,29.65,10.0,SW,5.8,-,N/A,,Overcast,220,2014-01-19 10:12:00
5:32 AM,16.0,13.1,88,29.63,10.0,SSW,6.9,-,N/A,,Mostly Cloudy,210,2014-01-19 10:32:00
5:51 AM,16.9,14.0,88,29.62,10.0,SW,9.2,-,N/A,,Clear,220,2014-01-19 10:51:00
6:12 AM,18.5,14.9,86,29.60,10.0,SW,10.4,-,N/A,,Mostly Cloudy,220,2014-01-19 11:12:00
6:31 AM,19.4,15.8,86,29.59,10.0,SSW,10.4,-,N/A,,Overcast,210,2014-01-19 11:31:00
6:51 AM,20.1,16.5,86,29.57,10.0,SSW,12.7,-,N/A,,Mostly Cloudy,210,2014-01-19 11:51:00
7:11 AM,21.0,17.4,86,29.56,10.0,SW,11.5,16.1,N/A,,Mostly Cloudy,220,2014-01-19 12:11:00
7:31 AM,21.9,18.1,85,29.55,10.0,SW,12.7,20.7,N/A,,Overcast,230,2014-01-19 12:31:00
7:52 AM,23.0,19.2,85,29.54,7.0,SW,15.0,24.2,N/A,Snow,Light Snow,230,2014-01-19 12:52:00
8:11 AM,23.4,19.4,85,29.53,5.0,SW,17.3,26.5,N/A,Snow,Light Snow,220,2014-01-19 13:11:00
8:32 AM,23.7,19.4,84,29.50,7.0,SW,18.4,27.6,N/A,,Scattered Clouds,220,2014-01-19 13:32:00
8:50 AM,24.4,20.1,84,29.49,7.0,SW,16.1,31.1,N/A,,Mostly Cloudy,230,2014-01-19 13:50:00
9:11 AM,25.2,20.3,82,29.49,10.0,SW,20.7,26.5,N/A,,Overcast,220,2014-01-19 14:11:00
9:32 AM,25.5,20.8,82,29.48,5.0,SW,19.6,35.7,N/A,,Overcast,220,2014-01-19 14:32:00
9:51 AM,26.1,21.2,82,29.48,4.0,WSW,19.6,28.8,N/A,Snow,Light Snow,240,2014-01-19 14:51:00
10:11 AM,26.8,21.7,81,29.46,7.0,SW,23.0,33.4,N/A,,Overcast,230,2014-01-19 15:11:00
10:32 AM,27.5,21.9,80,29.45,5.0,SW,21.9,39.1,N/A,,Haze,230,2014-01-19 15:32:00
10:51 AM,27.9,22.3,80,29.45,10.0,SW,16.1,28.8,N/A,,Overcast,230,2014-01-19 15:51:00
11:11 AM,28.2,22.6,80,29.46,10.0,WSW,17.3,27.6,N/A,,Overcast,240,2014-01-19 16:11:00
11:32 AM,28.4,23.0,80,29.46,10.0,SW,18.4,23.0,N/A,,Overcast,230,2014-01-19 16:32:00
11:51 AM,29.1,23.5,80,29.46,10.0,WSW,12.7,24.2,N/A,,Overcast,240,2014-01-19 16:51:00
12:12 PM,29.7,23.9,79,29.45,10.0,WSW,16.1,26.5,N/A,,Overcast,240,2014-01-19 17:12:00
12:32 PM,29.8,23.9,79,29.45,10.0,WSW,16.1,26.5,N/A,,Overcast,250,2014-01-19 17:32:00
12:51 PM,30.2,24.3,79,29.44,10.0,WSW,17.3,24.2,N/A,,Overcast,250,2014-01-19 17:51:00
1:12 PM,30.6,24.1,77,29.44,10.0,WSW,17.3,26.5,N/A,,Overcast,250,2014-01-19 18:12:00
1:32 PM,30.4,24.1,77,29.45,10.0,West,20.7,27.6,N/A,,Overcast,260,2014-01-19 18:32:00
1:51 PM,30.4,23.9,77,29.45,10.0,West,12.7,24.2,N/A,,Overcast,260,2014-01-19 18:51:00
2:12 PM,30.2,23.9,77,29.44,10.0,West,16.1,28.8,N/A,,Overcast,260,2014-01-19 19:12:00
2:32 PM,30.2,23.9,77,29.44,10.0,WSW,15.0,26.5,N/A,,Overcast,250,2014-01-19 19:32:00
2:51 PM,30.4,23.9,77,29.46,10.0,West,12.7,19.6,N/A,,Overcast,260,2014-01-19 19:51:00
3:12 PM,30.2,23.9,77,29.46,10.0,WSW,13.8,19.6,N/A,,Overcast,250,2014-01-19 20:12:00
3:32 PM,30.2,24.3,79,29.46,10.0,West,12.7,21.9,N/A,,Overcast,260,2014-01-19 20:32:00
3:51 PM,30.2,24.3,79,29.47,10.0,West,12.7,20.7,N/A,,Overcast,260,2014-01-19 20:51:00
4:12 PM,30.0,24.1,79,29.47,10.0,WSW,12.7,23.0,N/A,,Overcast,250,2014-01-19 21:12:00
4:32 PM,30.0,24.1,79,29.47,10.0,WSW,10.4,-,N/A,,Overcast,250,2014-01-19 21:32:00
4:51 PM,30.0,24.3,79,29.48,10.0,West,9.2,19.6,N/A,,Overcast,260,2014-01-19 21:51:00
5:12 PM,30.2,24.3,79,29.49,10.0,West,10.4,16.1,N/A,,Overcast,260,2014-01-19 22:12:00
5:31 PM,30.2,24.3,79,29.49,10.0,WSW,8.1,-,N/A,,Overcast,250,2014-01-19 22:31:00
5:51 PM,30.2,24.3,79,29.49,10.0,West,6.9,-,N/A,,Overcast,260,2014-01-19 22:51:00
6:12 PM,30.2,24.6,80,29.50,10.0,SW,6.9,-,N/A,,Overcast,230,2014-01-19 23:12:00
6:31 PM,30.2,24.8,80,29.51,10.0,WSW,9.2,-,N/A,,Overcast,240,2014-01-19 23:31:00
6:52 PM,30.2,24.8,80,29.51,10.0,WSW,9.2,-,N/A,,Overcast,240,2014-01-19 23:52:00
7:11 PM,30.2,24.6,80,29.51,10.0,WSW,10.4,-,N/A,,Overcast,240,2014-01-20 00:11:00
7:31 PM,30.2,24.8,80,29.52,10.0,WSW,8.1,-,N/A,,Overcast,250,2014-01-20 00:31:00
7:52 PM,30.2,24.8,80,29.52,10.0,WSW,5.8,-,N/A,,Overcast,250,2014-01-20 00:52:00
8:11 PM,30.2,24.8,80,29.51,10.0,SW,6.9,-,N/A,,Overcast,230,2014-01-20 01:11:00
8:31 PM,30.2,24.8,80,29.51,10.0,WSW,5.8,-,N/A,,Overcast,240,2014-01-20 01:31:00
8:52 PM,30.2,25.0,81,29.50,10.0,SSW,5.8,-,N/A,,Overcast,210,2014-01-20 01:52:00
9:11 PM,30.2,25.2,82,29.50,10.0,SW,3.5,-,N/A,,Overcast,230,2014-01-20 02:11:00
9:31 PM,30.2,24.8,80,29.50,10.0,Calm,Calm,-,N/A,,Overcast,0,2014-01-20 02:31:00
9:52 PM,30.0,25.3,83,29.49,10.0,Calm,Calm,-,N/A,,Overcast,0,2014-01-20 02:52:00
10:11 PM,30.2,25.5,83,29.49,10.0,Calm,Calm,-,N/A,,Overcast,0,2014-01-20 03:11:00
10:31 PM,30.0,25.7,84,29.49,7.0,Calm,Calm,-,N/A,,Overcast,0,2014-01-20 03:31:00
10:52 PM,29.8,25.9,85,29.49,7.0,Calm,Calm,-,N/A,,Overcast,0,2014-01-20 03:52:00
11:11 PM,29.7,26.1,86,29.49,10.0,Calm,Calm,-,N/A,,Overcast,0,2014-01-20 04:11:00
11:31 PM,29.8,26.4,87,29.49,10.0,Calm,Calm,-,N/A,,Overcast,0,2014-01-20 04:31:00
11:52 PM,29.7,26.4,88,29.48,10.0,Calm,Calm,-,N/A,,Overcast,0,2014-01-20 04:52:00